Regional Weather Roundup
Issued by NWS

Home | Current Version | Previous Version | Text Only | Print | Product List | Glossary On
Versions: 1 2 3 4 5 6 7 8 9 10 11 12 13 14 15 16 17 18 19 20 21 22 23 24 25 26 27 28 29 30 31 32 33 34 35 36 37 38 39 40 41 42 43 44 45 46 47 48 49 50
000
ASUS43 KDTX 210501
RWRMI
MICHIGAN HOURLY REGIONAL WEATHER ROUNDUP
NATIONAL WEATHER SERVICE DETROIT/PONTIAC MI
100 AM EDT THU AUG 21 2014

NOTE: "FAIR" INDICATES FEW OR NO CLOUDS BELOW 12,000 FEET WITH NO
SIGNIFICANT WEATHER AND/OR OBSTRUCTION TO VISIBILITY.

MIZ047>049-052>055-059>063-066>070-074>076-081>083-210600-
SOUTHEAST LOWER MICHIGAN

CITY           SKY/WX    TMP DP  RH WIND       PRES   REMARKS
ADRIAN         MOCLDY    67  65  93 W3        29.99R
ALMA           FOG       60  59  96 CALM      29.98R VSB 3/4
ANN ARBOR      CLEAR     63  60  90 CALM      29.98R
BAD AXE        MOCLDY    64  64 100 CALM      29.95R FOG
CARO           MOCLDY    65  65  99 CALM      29.95S FOG
DETROIT CITY   CLEAR     73  62  68 W5        29.96S
DETROIT        MOCLDY    69  64  84 CALM      29.97S
FLINT          PTCLDY    68  63  84 W3        29.97S
GROSSE ILE     MOCLDY    72  64  78 CALM      29.96S
HILLSDALE      MOCLDY    67  67 100 NW3       30.00S
HOWELL         MOCLDY    66  63  92 CALM      29.98S

CITY           SKY/WX    TMP DP  RH WIND       PRES   REMARKS
JACKSON        MOCLDY    65  63  93 CALM      29.99R
LAMBERTVILLE   PTCLDY    68  64  88 CALM      29.98S
LANSING        MOCLDY    66  63  90 CALM      29.98R
LAPEER         FAIR      64  63  94 CALM      29.97R
MASON          MOCLDY    63  62  96 CALM      29.98S
MONROE         PTCLDY    66  64  94 CALM      29.96R
MT. CLEMENS    CLEAR     68  64  88 S5        29.95S
PONTIAC        CLEAR     68  62  81 SW5       29.97S
PORT HOPE        N/A     66  64  93 VRB3      29.93R
PORT HURON     CLEAR     64  64 100 CALM      29.95S
TRI CITIES     CLEAR     65  61  87 W6        29.97R
TROY           CLEAR     71  64  78 W5        29.98S
SAGINAW HB     MOCLDY    66  64  94 W3        29.96R
$$
MIZ043>046-050>051-056>058-064>065-071>073-077>080-210600-
SOUTHWEST LOWER MICHIGAN

CITY           SKY/WX    TMP DP  RH WIND       PRES   REMARKS
BATTLE CREEK   MOCLDY    70  65  84 CALM      29.99R
BENTON HARBOR  MOCLDY    72  66  81 CALM      29.96R
BIG RAPIDS     CLEAR     58  58 100 SW3       29.97R FOG
COLDWATER      MOCLDY    69  67  95 CALM      29.99S
FREMONT        FAIR      60  60  97 CALM      29.98R
HOLLAND        PTCLDY    69  65  86 CALM      29.98R
GRAND RAPIDS   CLOUDY    68  66  93 CALM      29.98R
IONIA          MOCLDY    66  63  91 CALM      29.98R
KALAMAZOO      MOCLDY    71  65  81 CALM      29.98S
LUDINGTON      CLEAR     57  56  98 CALM      29.99R
MARSHALL       MOCLDY    66  65  95 CALM      29.98S
MOUNT PLEASANT CLEAR     60  59  97 CALM      29.97R FOG
MUSKEGON       CLOUDY    67  63  87 CALM      29.98R
SOUTH HAVEN    MOCLDY    69  68  96 CALM      29.97S
$$
MIZ016>042-210600-
NORTHERN LOWER MICHIGAN

CITY           SKY/WX    TMP DP  RH WIND       PRES   REMARKS
ALPENA         CLOUDY    64  61  90 NW8       29.95S
BEAVER ISLAND  CLOUDY    62  61  97 NW3       29.95S FOG
BELLAIRE       CLOUDY    62  60  93 CALM      29.95R
CADILLAC       CLEAR     57  57 100 CALM      29.97R
CHARLEVOIX     CLOUDY    64  64 100 W3        29.98R FOG
FRANKFORT      CLOUDY    62  59  90 CALM      29.96S
GAYLORD        CLOUDY    61  60  97 CALM      29.97R
GRAYLING       CLOUDY    64  62  94 W3        29.98R
HARBOR SPRINGS CLOUDY    63  62  96 CALM      29.94S
HOUGHTON LAKE  CLOUDY    63  60  90 CALM      29.98R
MANISTEE       CLEAR     57  55  94 CALM      29.98R
OSCODA         CLOUDY    65  65  98 CALM      29.94R
PELLSTON       CLOUDY    64  62  93 N6        29.94F
ROGERS CITY    CLOUDY    63  63 100 CALM      29.95F
TRAVERSE CITY  CLEAR     61  58  90 CALM      29.95R
$$
MIZ007>008-015-210600-
EASTERN UPPER MICHIGAN

CITY           SKY/WX    TMP DP  RH WIND       PRES   REMARKS
KINROSS        CLOUDY    61  59  94 NW6       29.95R
MACKINAC ISLAN CLOUDY    61  61 100 N5        29.94S FOG
NEWBERRY       CLOUDY    59  58  98 CALM      29.95S
S. S. MARIE    CLOUDY    61  60  97 CALM      29.94R
$$
MIZ004>006-011>014-085-210600-
CENTRAL UPPER MICHIGAN

CITY           SKY/WX    TMP DP  RH WIND       PRES   REMARKS
MANISTIQUE     PTCLDY    58  58  99 NW3       29.94S
ESCANABA       CLOUDY    63  61  94 CALM      29.95S
MENOMINEE      CLOUDY    66  63  88 S3        29.95S
SAWYER-GWINN   FOG       58  57  97 CALM      29.96F VSB 1/2
$$
MIZ001>003-009>011-084-210600-
WESTERN UPPER MICHIGAN

CITY           SKY/WX    TMP DP  RH WIND       PRES   REMARKS
IRON MOUNTAIN  CLOUDY    64  61  90 CALM      29.96R
HOUGHTON       CLOUDY    60  58  92 E3        29.96S FOG
COPPER HARBOR    N/A     56  55  97 N3        29.96F
IRONWOOD       CLEAR     57  57 100 CALM      29.94S VSB 1
$$

ABBREVIATIONS USED IN REMARKS
   TC - TEMPERATURE IN CELSIUS
  WCI - WIND CHILL INDEX
   HX - HEAT INDEX
  VSB - VISIBILITY



USA.gov is the U.S. government's official web portal to all federal, state and local government web resources and services.